Hourly Data Report for October 02, 2017

All times are specified in Local Standard Time (LST). Add 1 hour to adjust for Daylight Saving Time where and when it is observed.

DELINE CS
NORTHWEST TERRITORIES

65°12'31.090" N
123°26'00.070" W
212.80 m
2201022
71503
XDE

Download Data

Hourly Data (October 2017)
Hourly Data Report for October 2, 2017
Temp Definition
°C
Dew Point Temp Definition
°C
Rel Hum Definition
%
Wind Dir Definition
10's deg

Wind Spd Definition
km/h
Visibility Definition
km
Stn Press Definition
kPa
Hmdx Definition


Wind Chill Definition


Weather Definition


TIME
00:00 1.8 -1.8 77 27 12   100.04     LegendNANA
01:00 2.4 -1.9 73 26 17   100.05     LegendNANA
02:00 2.0 -2.0 75 28 14   100.08     LegendNANA
03:00 0.7 -2.2 81 30 11   100.06     LegendNANA
04:00 0.4 -2.3 82 32 14   100.07     LegendNANA
05:00 0.0 -2.3 84 32 12   100.01   -4 LegendNANA
06:00 -0.4 -2.7 84 30 10   99.97   -4 LegendNANA
07:00 -1.6 -3.4 88 34 8   99.93   -5 LegendNANA
08:00 -2.4 -4.1 88 32 7   99.88   -5 LegendNANA
09:00 1.9 -1.9 76 32 6   99.85     LegendNANA
10:00 5.7 -2.6 55 26 8   99.81     LegendNANA
11:00 7.2 -2.4 51 33 8   99.76     LegendNANA
12:00 8.6 -2.1 47 27 3   99.72     LegendNANA
13:00 7.8 -0.8 54 14 6   99.67     LegendNANA
14:00 6.9 -0.8 58 12 6   99.60     LegendNANA
15:00 7.1 0.0 61 10 13   99.55     LegendNANA
16:00 5.4 1.7 77 9 25   99.45     LegendNANA
17:00 3.7 1.2 84 7 25   99.38     LegendNANA
18:00 3.1 1.0 86 8 20   99.30     LegendNANA
19:00 3.2 1.3 87 7 24   99.12     LegendNANA
20:00 3.6 1.9 88 9 17   99.13     LegendNANA
21:00 3.7 2.0 88 9 18   99.03     LegendNANA
22:00 3.7 1.2 83 9 24   98.93     LegendNANA
23:00 3.7 1.0 82 9 23   98.82     LegendNANA

Notes on Data Quality.

Legend

  • E = Estimated
  • M = Missing
  • NA = Not Available
  • ‡ = Partner data that is not subject to review by the National Climate Archives
Date modified: